This is the latest recevied weather packets stored in our database for station/object WI0K. If no packets are shown the sender has not sent any weather packets the latest 10 day(s).
| Time | Temp. | Humidity | Pressure | Rain* | Wind** | Luminosity | Snow |
|---|---|---|---|---|---|---|---|
| 1788360156 | 21.11° C | 48% | 1020.2 hPa | 0 mm | - | 392 W/m² | - |
| 1788359855 | 21.11° C | 49% | 1020.2 hPa | 0 mm | - | 372 W/m² | - |
| 1788359555 | 20.56° C | 49% | 1020.3 hPa | 0 mm | - | 354 W/m² | - |
| 1788359254 | 20.56° C | 51% | 1020.2 hPa | 0 mm | - | 335 W/m² | - |
| 1788358953 | 20.56° C | 51% | 1020.2 hPa | 0 mm | - | 317 W/m² | - |
| 1788358652 | 20.56° C | 51% | 1020.2 hPa | 0 mm | - | 298 W/m² | - |
| 1788358352 | 21.11° C | 50% | 1020.2 hPa | 0 mm | - | 280 W/m² | - |
| 1788358051 | 21.11° C | 50% | 1020.1 hPa | 0 mm | - | 258 W/m² | - |
| 1788357750 | 20.56° C | 49% | 1020.1 hPa | 0 mm | - | 242 W/m² | - |
| 1788357450 | 20° C | 51% | 1019.9 hPa | 0 mm | - | 224 W/m² | - |
| 1788357149 | 20° C | 51% | 1020.1 hPa | 0 mm | - | 199 W/m² | - |
| 1788356848 | 19.44° C | 52% | 1020.1 hPa | 0 mm | - | 184 W/m² | - |
| 1788356548 | 18.89° C | 53% | 1020.2 hPa | 0 mm | - | 167 W/m² | - |
| 1788356247 | 18.33° C | 54% | 1020.2 hPa | 0 mm | - | 151 W/m² | - |
| 1788355946 | 18.33° C | 55% | 1020.2 hPa | 0 mm | - | 92 W/m² | - |
| 1788355646 | 18.33° C | 54% | 1020.1 hPa | 0 mm | - | 114 W/m² | - |
| 1788355345 | 17.78° C | 54% | 1019.9 hPa | 0 mm | - | 105 W/m² | - |
| 1788355044 | 17.22° C | 56% | 1019.9 hPa | 0 mm | - | 88 W/m² | - |
| 1788354743 | 16.67° C | 59% | 1019.9 hPa | 0 mm | - | 78 W/m² | - |
| 1788354442 | 16.11° C | 61% | 1019.9 hPa | 0 mm | - | 56 W/m² | - |
| 1788354142 | 16.11° C | 62% | 1019.9 hPa | 0 mm | - | 40 W/m² | - |
| 1788353841 | 16.11° C | 62% | 1019.9 hPa | 0 mm | - | 27 W/m² | - |
| 1788353540 | 16.11° C | 61% | 1019.9 hPa | 0 mm | - | 22 W/m² | - |
| 1788353240 | 16.11° C | 60% | 1019.8 hPa | 0 mm | - | 18 W/m² | - |
| 1788352939 | 16.67° C | 59% | 1019.8 hPa | 0 mm | - | 14 W/m² | - |
* Rain latest hour (hover to see other rain measurements)
** Current wind speed in m/s (hover to see current wind gust speed)